Regional Weather Roundup
Issued by NWS Sioux Falls, SD

Home | Current Version | Previous Version | Text Only | Print | Product List | Glossary On
Versions: 1 2 3 4 5 6 7 8 9 10 11 12 13 14 15 16 17 18 19 20 21 22 23 24 25 26 27 28 29 30 31 32 33 34 35 36 37 38 39 40 41 42 43 44 45 46 47 48 49 50
000
ASUS43 KFSD 020510
RWRFSD

WEATHER ROUNDUP FOR SE SOUTH DAKOTA/SW MINNESOTA/NW IOWA
NATIONAL WEATHER SERVICE SIOUX FALLS SD
1200 AM CDT WED SEP 02 2015

NOTE: "FAIR" INDICATES FEW OR NO CLOUDS BELOW 12,000 FEET WITH NO
SIGNIFICANT WEATHER AND OR OBSTRUCTIONS TO VISIBILITY.


SDZ038>040-050-052>070-020600-
SOUTHEAST SOUTH DAKOTA

CITY           SKY/WX    TMP DP  RH WIND       PRES   REMARKS
BROOKINGS      CLEAR     68  63  83 E12       29.89F
CHAMBERLAIN    CLEAR     69  68  97 SE7       29.81F
HURON          CLEAR     69  67  93 SE7       29.82F FOG
MADISON        FAIR      70  70 100 E6        29.88S
MITCHELL       CLEAR     68  68 100 SE5       29.82F FOG
SIOUX FALLS    PTCLDY    74  70  87 S6        29.86F
WINNER           N/A     76  63  64 S16       29.81F
YANKTON        CLEAR     75  68  78 S6        29.83F
$$

MNZ071-072-080-081-089-090-097-098-020600-
SOUTHWEST MINNESOTA

CITY           SKY/WX    TMP DP  RH WIND       PRES   REMARKS
FAIRMONT       PTCLDY    73  66  78 S10       29.91F
JACKSON        CLOUDY    77  70  78 S14       29.91F
LUVERNE        CLEAR     73  70  88 S6        29.88F
MARSHALL       CLOUDY    66  59  77 E14G21    29.93S THUNDER
MONTEVIDEO     CLOUDY    72  68  88 SW13G22   29.93R
PIPESTONE      PTCLDY    68  64  88 SE7       29.90F
REDWOOD FALLS  TSTM      72  65  78 SE12G25   29.89S
TRACY          CLOUDY    67  64  87 SE7       29.91F THUNDER
WINDOM         TSTM      72  66  83 CALM      29.92F
WORTHINGTON    CLOUDY    73  70  88 SW7       29.90S
$$

IAZ001>003-012>014-020>022-031-032-NEZ013-014-SDZ071-020600-
NORTHWEST IOWA

CITY           SKY/WX    TMP DP  RH WIND       PRES   REMARKS
CHEROKEE       MOCLDY    75  70  83 S12       29.91S
DENISON        CLEAR     75  68  78 S12G20    29.92S
ESTHERVILLE    TSTM      74  69  85 SE17G28   29.92S
LE MARS        CLEAR     75  70  83 S10       29.89S
ORANGE CITY    CLEAR     73  70  88 S9        29.89S
SHELDON        CLOUDY    75  70  83 S9        29.89S
SIOUX CITY     CLEAR     75  67  76 S9        29.88S
SPENCER        CLOUDY    76  69  79 S13       29.91S
STORM LAKE     PTCLDY    73  70  88 S13       29.94S
$$

ABBREVIATIONS USED IN REMARKS
   TC - TEMPERATURE IN CELSIUS
  WCI - WIND CHILL INDEX
   HX - HEAT INDEX
  VSB - VISIBILITY



USA.gov is the U.S. government's official web portal to all federal, state and local government web resources and services.